[TLELIST] Archives

 

Current TLEs

January 18th 2007 PDT

HST 1 20580U 90037B 07018.45692315 .00000340 00000-0 13574-4 0 7848 2 20580 028.4670 086.4458 0003633 301.2533 058.7704 15.00176390717458 ISS (ZARYA) 1 25544U 98067A 07018.50107321 .00022068 00000-0 13324-3 0 4657 2 25544 051.6325 157.4555 0023327 105.3011 339.6680 15.77196590467130 CXO 1 25867U 99040B 07016.91666667 +.00000382 +00000-0 +00000-0 0 00243 2 25867 060.9861 092.5703 6027903 286.6686 356.0120 00.37802642001689 ____________________________________________________________________ These 2-Line ...Continue Reading

Current TLEs

January 17th 2007 PDT

HST 1 20580U 90037B 07015.59621479 +.00000421 +00000-0 +19893-4 0 07911 2 20580 028.4665 105.0958 0003692 271.3882 088.6285 15.00175443717021 ISS (ZARYA) 1 25544U 98067A 07017.48481441 .00022369 00000-0 13529-3 0 4584 2 25544 051.6307 162.7017 0023352 101.5551 329.3580 15.77148206466974 CXO 1 25867U 99040B 07016.91666667 +.00000382 +00000-0 +00000-0 0 00243 2 25867 060.9861 092.5703 6027903 286.6686 356.0120 00.37802642001689 ____________________________________________________________________ These 2-Line ...Continue Reading

Current TLEs

January 16th 2007 PDT

HST 1 20580U 90037B 07014.66482136 +.00000435 +00000-0 +20998-4 0 07826 2 20580 028.4664 111.1674 0003718 261.7503 098.2669 15.00175043716887 ISS (ZARYA) 1 25544U 98067A 07016.47063255 .00015782 00000-0 96986-4 0 4525 2 25544 051.6319 167.9319 0023485 098.4731 330.3634 15.77087340466816 CXO 1 25867U 99040B 07014.29166667 +.00000378 +00000-0 +00000-0 0 00231 2 25867 060.9720 092.6124 6022796 286.7356 358.6109 00.37803718001670 ____________________________________________________________________ These 2-Line ...Continue Reading

Current TLEs

January 15th 2007 PDT

HST 1 20580U 90037B 07013.60037173 +.00000439 +00000-0 +21318-4 0 07827 2 20580 028.4663 118.1075 0003757 250.5879 109.4305 15.00174485716727 ISS (ZARYA) 1 25544U 98067A 07015.52122755 .00015582 00000-0 95939-4 0 4458 2 25544 051.6310 172.8300 0023553 095.1160 339.8621 15.77054875466668 CXO 1 25867U 99040B 07014.29166667 +.00000378 +00000-0 +00000-0 0 00231 2 25867 060.9720 092.6124 6022796 286.7356 358.6109 00.37803718001670 ____________________________________________________________________ These 2-Line ...Continue Reading

Current TLEs

January 14th 2007 PDT

HST 1 20580U 90037B 07012.73550656 +.00000441 +00000-0 +21427-4 0 07965 2 20580 028.4662 123.7458 0003753 241.6559 118.3655 15.00173996716593 ISS (ZARYA) 1 25544U 98067A 07014.51543752 .00016081 00000-0 99009-4 0 4389 2 25544 051.6318 178.0181 0023525 091.2989 029.6109 15.77024373466504 CXO 1 25867U 99040B 07014.29166667 +.00000378 +00000-0 +00000-0 0 00231 2 25867 060.9720 092.6124 6022796 286.7356 358.6109 00.37803718001670 ____________________________________________________________________ These 2-Line ...Continue Reading

Current TLEs

January 13th 2007 PDT

HST 1 20580U 90037B 07011.73758471 .00000451 00000-0 22241-4 0 7808 2 20580 028.4661 130.2520 0003806 231.5494 128.4756 15.00173510716440 ISS (ZARYA) 1 25544U 98067A 07013.49723438 .00017218 00000-0 10584-3 0 4323 2 25544 051.6322 183.2732 0023569 087.3524 009.0856 15.76994429466348 CXO 1 25867U 99040B 07011.62500000 +.00000355 +00000-0 +00000-0 0 00222 2 25867 060.9563 092.6512 6018868 286.8062 355.5198 00.37804524001665 ____________________________________________________________________ These 2-Line ...Continue Reading

Current TLEs

January 12th 2007 PDT

HST 1 20580U 90037B 07011.73758471 .00000451 00000-0 22241-4 0 7808 2 20580 028.4661 130.2520 0003806 231.5494 128.4756 15.00173510716440 ISS (ZARYA) 1 25544U 98067A 07012.53739456 .00016062 00000-0 99189-4 0 4262 2 25544 051.6322 188.2252 0023519 083.8938 319.7318 15.76957818466193 CXO 1 25867U 99040B 07011.62500000 +.00000355 +00000-0 +00000-0 0 00222 2 25867 060.9563 092.6512 6018868 286.8062 355.5198 00.37804524001665 ____________________________________________________________________ These 2-Line ...Continue Reading

Current TLEs

January 11th 2007 PDT

HST 1 20580U 90037B 07010.67313491 .00000439 00000-0 21329-4 0 7799 2 20580 028.4661 137.1921 0003819 221.3186 138.7114 15.00172805716280 ISS (ZARYA) 1 25544U 98067A 07011.52305973 .00012642 00000-0 79129-4 0 4209 2 25544 051.6316 193.4544 0023618 080.5609 320.7911 15.76914639466035 CXO 1 25867U 99040B 07009.00000000 +.00000316 +00000-0 +00000-0 0 00212 2 25867 060.9439 092.6979 6016152 286.8690 358.0958 00.37804305001653 ____________________________________________________________________ These 2-Line ...Continue Reading

Current TLEs

January 10th 2007 PDT

HST 1 20580U 90037B 07008.81034682 +.00000452 +00000-0 +22312-4 0 07905 2 20580 028.4660 149.3374 0003861 203.4296 156.6119 15.00171792716004 ISS (ZARYA) 1 25544U 98067A 07010.50934632 .00012350 00000-0 77497-4 0 4141 2 25544 051.6326 198.6827 0023610 076.6791 326.0845 15.76886586465872 CXO 1 25867U 99040B 07009.00000000 +.00000316 +00000-0 +00000-0 0 00212 2 25867 060.9439 092.6979 6016152 286.8690 358.0958 00.37804305001653 ____________________________________________________________________ These 2-Line ...Continue Reading

Current TLEs

January 9th 2007 PDT

HST 1 20580U 90037B 07006.81450184 +.00000439 +00000-0 +21275-4 0 07836 2 20580 028.4659 162.3500 0003845 183.2185 176.8382 15.00170510715701 ISS (ZARYA) 1 25544U 98067A 07009.37340718 .00013665 00000-0 85381-4 0 4095 2 25544 051.6331 204.5413 0023631 072.5315 357.4518 15.76861884465695 CXO 1 25867U 99040B 07009.00000000 +.00000316 +00000-0 +00000-0 0 00212 2 25867 060.9439 092.6979 6016152 286.8690 358.0958 00.37804305001653 ____________________________________________________________________ These 2-Line ...Continue Reading
  • This mailing list is a public mailing list - anyone may join or leave, at any time.
  • This mailing list is announce-only.

International Space Station (ISS) / Hubble Space Telescope (HST) / Chandra X-Ray Observatory Orbital Data via EMAIL

Privacy Policy:

Private list